TimePDT,TemperatureF,Dew PointF,Humidity,Sea Level PressureIn,VisibilityMPH,Wind Direction,Wind SpeedMPH,Gust SpeedMPH,PrecipitationIn,Events,Conditions,WindDirDegrees,DateUTC
12:53 AM,48.9,46.9,93,30.01,10.0,Calm,Calm,-,N/A,,Clear,0,2012-10-31 07:53:00
1:36 AM,48.2,46.4,93,30.01,10.0,Calm,Calm,-,N/A,,Partly Cloudy,0,2012-10-31 08:36:00
1:48 AM,50.0,48.2,94,30.01,10.0,Calm,Calm,-,N/A,,Mostly Cloudy,0,2012-10-31 08:48:00
1:53 AM,50.0,48.0,93,30.01,10.0,Calm,Calm,-,N/A,,Mostly Cloudy,0,2012-10-31 08:53:00
2:53 AM,53.1,50.0,89,30.00,10.0,Calm,Calm,-,N/A,,Overcast,0,2012-10-31 09:53:00
3:53 AM,55.0,53.1,93,30.00,9.0,Calm,Calm,-,N/A,,Overcast,0,2012-10-31 10:53:00
4:53 AM,57.0,55.0,93,29.99,7.0,NE,5.8,-,N/A,,Overcast,40,2012-10-31 11:53:00
5:53 AM,57.0,54.0,89,30.00,8.0,North,5.8,-,N/A,,Overcast,10,2012-10-31 12:53:00
6:53 AM,57.0,54.0,89,30.03,7.0,North,4.6,-,N/A,,Overcast,360,2012-10-31 13:53:00
7:36 AM,57.2,53.6,88,30.03,7.0,North,4.6,-,N/A,,Overcast,10,2012-10-31 14:36:00
7:53 AM,57.0,53.1,87,30.04,7.0,North,4.6,-,N/A,,Overcast,360,2012-10-31 14:53:00
8:53 AM,59.0,53.1,81,30.06,9.0,Calm,Calm,-,N/A,,Overcast,0,2012-10-31 15:53:00
9:53 AM,59.0,53.1,81,30.06,10.0,Calm,Calm,-,N/A,,Overcast,0,2012-10-31 16:53:00
10:49 AM,62.6,53.6,72,30.05,10.0,SSE,4.6,-,N/A,,Scattered Clouds,150,2012-10-31 17:49:00
10:53 AM,63.0,53.1,70,30.05,10.0,Variable,4.6,-,N/A,,Scattered Clouds,0,2012-10-31 17:53:00
12:53 PM,64.0,53.1,67,30.02,10.0,SW,8.1,-,N/A,,Scattered Clouds,220,2012-10-31 19:53:00
1:53 PM,64.0,53.1,67,30.00,10.0,WSW,5.8,-,N/A,,Mostly Cloudy,240,2012-10-31 20:53:00
2:53 PM,64.0,53.1,67,29.99,10.0,WSW,8.1,-,N/A,,Mostly Cloudy,240,2012-10-31 21:53:00
3:53 PM,63.0,54.0,72,29.99,10.0,West,10.4,-,N/A,,Clear,270,2012-10-31 22:53:00
4:53 PM,62.1,55.0,78,29.98,10.0,West,12.7,-,N/A,,Clear,270,2012-10-31 23:53:00
6:53 PM,57.0,53.1,87,29.98,10.0,Calm,Calm,-,N/A,,Clear,0,2012-11-01 01:53:00
7:53 PM,57.0,53.1,87,29.98,10.0,Calm,Calm,-,N/A,,Clear,0,2012-11-01 02:53:00
9:53 PM,54.0,51.1,90,29.98,10.0,NNE,4.6,-,N/A,,Clear,30,2012-11-01 04:53:00
10:53 PM,54.0,51.1,90,29.98,9.0,NE,4.6,-,N/A,,Clear,40,2012-11-01 05:53:00
11:53 PM,51.1,50.0,96,29.99,9.0,Calm,Calm,-,0.01,,Clear,0,2012-11-01 06:53:00